DW0602 Weather Reports


Display with metric or nautical units.
time (UTC)temp
F
wind
direction
speed
MPH
gust
MPH
rain 1hr
in
rain 24hr
in
rain mn
in
humidity
%
barometer
mb
20260502170222 60 233 2.0 6.0 0.00 0.00 0.00 26 1022.7
20260502164159 58 276 2.0 6.0 0.00 0.00 0.00 24 1022.7
20260502163652 58 294 2.0 6.0 0.00 0.00 0.00 24 1022.9
20260502163146 58 41 2.0 6.0 0.00 0.00 0.00 25 1022.7
20260502163004 57 289 1.0 7.0 0.00 0.00 0.00 28 1023.2
20260502162641 58 307 2.0 6.0 0.00 0.00 0.00 25 1022.9
20260502161629 57 258 2.0 4.0 0.00 0.00 0.00 23 1022.9
20260502161505 57 123 1.0 4.0 0.00 0.00 0.00 24 1023.3
20260502161123 57 274 3.0 9.0 0.00 0.00 0.00 23 1022.9
20260502160616 57 266 2.0 9.0 0.00 0.00 0.00 24 1022.9
20260502160111 58 15 2.0 4.0 0.00 0.00 0.00 25 1023.0
20260502152022 54 238 3.0 5.0 0.00 0.00 0.00 26 1023.0
20260502151517 54 314 2.0 5.0 0.00 0.00 0.00 25 1023.0
20260502151506 54 309 2.0 6.0 0.00 0.00 0.00 25 1023.5
20260502151010 54 205 2.0 5.0 0.00 0.00 0.00 28 1023.1
20260502150504 54 314 2.0 5.0 0.00 0.00 0.00 27 1023.1
20260502123306 34 334 0.0 1.0 0.00 0.01 0.00 66 1022.6
20260502123014 33 328 0.0 1.0 0.00 0.01 0.00 65 1022.8
20260502122803 33 334 0.0 1.0 0.00 0.01 0.00 65 1022.5
20260502122300 33 334 0.0 1.0 0.00 0.01 0.00 65 1022.5
20260502121757 33 334 0.0 1.0 0.00 0.01 0.00 65 1022.5
20260502121523 32 328 0.0 1.0 0.00 0.01 0.00 64 1022.8
20260502120755 33 334 0.0 1.0 0.00 0.01 0.00 65 1022.4
20260502120255 33 334 0.0 1.0 0.00 0.01 0.00 65 1022.5
20260502115753 33 334 0.0 1.0 0.00 0.01 0.00 64 1022.5
20260502115253 33 334 0.0 1.0 0.00 0.01 0.00 64 1022.4
20260502114747 33 334 0.0 1.0 0.00 0.01 0.00 65 1022.4
20260502114529 33 328 0.0 1.0 0.00 0.01 0.00 65 1022.8
20260502114241 33 334 0.0 1.0 0.00 0.01 0.00 65 1022.4
20260502113735 34 334 0.0 1.0 0.00 0.01 0.00 62 1022.5
20260502113230 34 334 1.0 3.0 0.00 0.01 0.00 61 1022.4
20260502113016 33 328 0.0 3.0 0.00 0.01 0.00 60 1022.7
20260502112723 34 334 1.0 3.0 0.00 0.01 0.00 61 1022.4
20260502111711 34 354 1.0 2.0 0.00 0.01 0.00 61 1022.4
20260502111514 33 347 0.0 2.0 0.00 0.01 0.00 61 1022.7
20260502111205 34 354 1.0 3.0 0.00 0.01 0.00 62 1022.4
20260502110659 33 354 1.0 3.0 0.00 0.01 0.00 65 1022.4
20260502110153 33 359 0.0 2.0 0.00 0.01 0.00 63 1022.4
20260502110021 32 355 0.0 1.0 0.00 0.01 0.00 62 1022.7
20260502105647 33 359 0.0 1.0 0.00 0.01 0.00 62 1022.4
20260502105141 33 359 0.0 1.0 0.00 0.01 0.00 62 1022.4
20260502104537 32 355 0.0 1.0 0.00 0.01 0.00 64 1022.8
20260502104130 32 359 0.0 1.0 0.00 0.01 0.00 65 1022.4
20260502103624 31 359 0.0 1.0 0.00 0.01 0.00 65 1022.4
20260502103117 30 359 0.0 0.0 0.00 0.01 0.00 67 1022.4
20260502103026 30 355 0.0 0.0 0.00 0.01 0.00 67 1022.7
20260502102612 30 359 0.0 0.0 0.00 0.01 0.00 68 1022.4
20260502102105 30 359 0.0 0.0 0.00 0.01 0.00 68 1022.3
20260502101558 31 359 0.0 1.0 0.00 0.01 0.00 68 1022.3
20260502101512 30 355 0.0 1.0 0.00 0.01 0.00 67 1022.6
20260502100554 31 359 0.0 0.0 0.00 0.01 0.00 67 1022.0
20260502090544 31 359 0.0 0.0 0.00 0.01 0.00 65 1022.0
20260502071535 37 338 0.0 0.0 0.00 0.01 0.00 53 1022.3
20260502071524 36 331 0.0 0.0 0.00 0.01 0.00 53 1022.6
20260502071033 37 338 0.0 0.0 0.00 0.01 0.00 53 1022.1
20260502070533 37 338 0.0 0.0 0.00 0.01 0.00 53 1022.3
20260502070033 37 338 0.0 0.0 0.00 0.01 0.00 52 1022.1
20260502070026 37 331 0.0 0.0 0.00 0.01 0.00 52 1022.5
20260502065532 38 338 0.0 0.0 0.00 0.01 0.00 52 1022.0
20260502065033 38 335 0.0 0.0 0.00 0.02 0.00 52 1022.0
20260502064530 38 329 0.0 3.0 0.00 0.02 0.00 50 1022.4
20260502064526 38 335 0.0 3.0 0.00 0.02 0.00 51 1022.0
20260502064019 38 335 0.0 3.0 0.00 0.02 0.00 50 1022.0
20260502063514 39 335 1.0 3.0 0.00 0.02 0.00 50 1022.0
20260502063028 38 330 0.0 4.0 0.00 0.02 0.00 50 1022.5
20260502062502 39 329 3.0 5.0 0.00 0.02 0.00 50 1022.0
20260502061520 37 333 2.0 4.0 0.00 0.02 0.00 53 1022.4
20260502060944 37 339 2.0 4.0 0.00 0.02 0.00 56 1021.9
20260502060438 35 330 1.0 4.0 0.00 0.02 0.00 59 1021.9
20260502060024 34 333 0.0 1.0 0.00 0.02 0.00 60 1022.4
20260502055932 35 340 0.0 1.0 0.00 0.02 0.02 60 1021.9
20260502055426 34 340 0.0 0.0 0.00 0.03 0.02 62 1021.9
20260502054922 34 340 0.0 0.0 0.00 0.03 0.02 63 1021.9
20260502054528 34 333 0.0 0.0 0.00 0.03 0.02 64 1022.3
20260502054414 34 340 0.0 0.0 0.00 0.03 0.02 65 1021.8
20260502053908 35 340 0.0 0.0 0.00 0.04 0.02 65 1021.8
20260502053029 35 333 0.0 1.0 0.00 0.04 0.02 63 1022.2
20260502052856 35 340 0.0 1.0 0.00 0.04 0.02 63 1021.8
20260502052350 35 340 0.0 1.0 0.00 0.04 0.02 62 1021.8
20260502051844 36 340 0.0 1.0 0.00 0.04 0.02 62 1021.7
20260502051528 36 333 0.0 3.0 0.00 0.04 0.02 62 1022.2
20260502051338 36 340 0.0 3.0 0.00 0.04 0.02 62 1021.7
20260502050832 36 340 0.0 3.0 0.00 0.05 0.02 63 1021.8
20260502050326 36 344 0.0 0.0 0.00 0.05 0.02 63 1021.7
20260502050022 36 338 0.0 0.0 0.00 0.05 0.02 63 1022.2
20260502045314 36 344 0.0 0.0 0.00 0.06 0.02 63 1021.8
20260502044808 36 344 0.0 0.0 0.00 0.06 0.02 63 1021.7
20260502044524 36 338 0.0 2.0 0.00 0.06 0.02 62 1022.2
20260502044302 37 344 0.0 2.0 0.00 0.06 0.02 62 1021.7
20260502043756 37 344 0.0 2.0 0.00 0.06 0.02 62 1021.8
20260502043250 37 344 0.0 1.0 0.00 0.06 0.02 63 1021.8
20260502043028 37 338 0.0 1.0 0.00 0.06 0.02 62 1022.2
20260502042743 37 344 0.0 1.0 0.00 0.07 0.02 63 1021.7
20260502042238 38 344 0.0 0.0 0.00 0.07 0.02 63 1021.7
20260502041732 38 344 0.0 0.0 0.00 0.07 0.02 62 1021.7
20260502041535 38 338 0.0 0.0 0.00 0.07 0.02 61 1022.2
20260502041226 38 344 0.0 0.0 0.00 0.07 0.02 61 1021.7
20260502040727 39 344 0.0 1.0 0.00 0.07 0.02 60 1021.7
20260502040222 39 344 0.0 2.0 0.00 0.07 0.02 60 1021.5
20260502040029 39 338 0.0 2.0 0.00 0.07 0.02 59 1022.1
20260502035722 39 344 0.0 2.0 0.00 0.07 0.02 59 1021.5
20260502035224 40 344 0.0 2.0 0.00 0.07 0.02 59 1021.5
20260502034721 40 347 0.0 2.0 0.00 0.08 0.02 57 1021.5
20260502034503 40 341 0.0 2.0 0.00 0.08 0.02 56 1022.0
20260502034220 40 347 1.0 2.0 0.00 0.08 0.02 56 1021.5
20260502033716 40 347 1.0 3.0 0.00 0.08 0.02 55 1021.5
20260502033217 40 353 1.0 3.0 0.00 0.08 0.02 54 1021.4
20260502033007 40 348 1.0 3.0 0.00 0.08 0.02 54 1021.9
20260502032718 40 359 0.0 2.0 0.00 0.08 0.02 54 1021.3
20260502032218 40 359 0.0 1.0 0.00 0.08 0.02 54 1021.3
20260502031716 40 359 0.0 0.0 0.00 0.08 0.02 55 1021.3
20260502031512 40 355 0.0 0.0 0.00 0.08 0.02 54 1021.8
20260502031215 41 359 0.0 0.0 0.00 0.08 0.02 53 1021.2
20260502030715 41 359 0.0 0.0 0.00 0.09 0.02 52 1021.0
20260502030213 41 359 0.0 0.0 0.00 0.09 0.02 51 1021.0
20260502030019 41 355 0.0 0.0 0.00 0.09 0.02 50 1021.7
20260502025714 42 359 0.0 0.0 0.00 0.09 0.02 50 1020.9
20260502025213 42 359 0.0 0.0 0.00 0.09 0.02 48 1020.9
20260502024710 42 359 0.0 0.0 0.00 0.10 0.02 48 1020.9
20260502024519 42 355 0.0 0.0 0.00 0.10 0.02 46 1021.4
20260502023706 43 359 0.0 0.0 0.00 0.10 0.02 45 1020.7
20260502023159 44 359 0.0 0.0 0.00 0.11 0.02 43 1020.7
20260502023007 44 355 0.0 0.0 0.00 0.11 0.02 42 1021.0
20260502022658 45 359 0.0 0.0 0.00 0.11 0.02 42 1020.7
20260502021657 46 359 0.0 0.0 0.00 0.13 0.02 39 1020.4
20260502021508 46 355 0.0 0.0 0.00 0.13 0.02 38 1020.9
20260502021158 47 359 0.0 0.0 0.00 0.13 0.02 38 1020.4
20260502020156 48 359 0.0 1.0 0.00 0.14 0.02 34 1020.4
20260502020017 47 355 0.0 1.0 0.00 0.14 0.02 33 1020.8
20260502015658 48 359 0.0 2.0 0.00 0.14 0.02 33 1020.4
20260502015157 48 359 0.0 2.0 0.00 0.14 0.02 32 1020.3
20260502014658 49 0 0.0 4.0 0.00 0.14 0.02 32 1020.2
20260502014520 48 360 0.0 4.0 0.00 0.14 0.02 31 1020.7
20260502014153 49 343 1.0 4.0 0.00 0.14 0.02 32 1020.2
20260502013652 49 359 1.0 6.0 0.00 0.14 0.02 32 1020.2
20260502013153 49 352 1.0 6.0 0.00 0.14 0.02 31 1020.1
20260502013022 49 349 0.0 6.0 0.00 0.14 0.02 31 1020.6
20260502012154 50 314 1.0 4.0 0.00 0.15 0.02 32 1020.1
20260502011655 50 327 1.0 4.0 0.00 0.15 0.02 32 1019.9
20260502011521 49 317 0.0 4.0 0.00 0.15 0.02 32 1020.4
20260502011155 50 333 1.0 5.0 0.00 0.15 0.02 34 1019.9
20260502010654 50 319 1.0 6.0 0.00 0.15 0.02 32 1019.8
20260502010156 50 6 1.0 6.0 0.00 0.16 0.02 33 1019.8
20260502010013 50 336 1.0 7.0 0.00 0.16 0.02 34 1020.4
20260502005651 50 321 1.0 6.0 0.00 0.16 0.02 34 1019.8
20260502005150 50 350 1.0 4.0 0.00 0.16 0.02 38 1019.8
20260502004515 50 109 0.0 7.0 0.00 0.16 0.02 37 1020.3
20260502004149 51 134 2.0 7.0 0.00 0.16 0.02 37 1019.7
20260502003651 51 31 3.0 7.0 0.00 0.16 0.02 38 1019.7
20260502003150 51 63 4.0 8.0 0.00 0.16 0.02 37 1019.7
20260502003025 51 72 3.0 9.0 0.00 0.16 0.02 35 1020.3
20260502002150 53 309 2.0 8.0 0.00 0.16 0.02 30 1019.6
20260502001650 53 30 2.0 8.0 0.00 0.16 0.02 34 1019.7
20260502001524 52 344 3.0 9.0 0.00 0.17 0.02 32 1020.2
20260502000648 52 328 1.0 4.0 0.00 0.17 0.02 35 1019.6
20260502000148 51 312 1.0 4.0 0.00 0.17 0.02 35 1019.6
20260502000028 51 336 0.0 4.0 0.00 0.17 0.02 37 1020.1
20260501235650 51 0 1.0 4.0 0.00 0.17 0.02 38 1019.6
20260501235149 51 298 1.0 5.0 0.00 0.18 0.02 35 1019.6
20260501234648 51 26 1.0 5.0 0.00 0.18 0.02 37 1019.6
20260501234527 50 277 0.0 5.0 0.00 0.18 0.02 37 1020.1
20260501234150 51 295 1.0 3.0 0.00 0.18 0.02 35 1019.6
20260501233648 51 321 2.0 6.0 0.00 0.18 0.02 37 1019.5
20260501233017 50 298 2.0 8.0 0.00 0.18 0.02 35 1020.1
20260501232135 51 321 1.0 4.0 0.00 0.18 0.02 37 1019.5
20260501231629 51 248 2.0 4.0 0.00 0.18 0.02 37 1019.5
20260501231535 50 286 2.0 4.0 0.00 0.18 0.02 37 1020.1
20260501231124 51 283 1.0 4.0 0.00 0.18 0.02 38 1019.5
20260501230620 51 321 1.0 3.0 0.00 0.18 0.02 37 1019.5
20260501230024 51 42 0.0 3.0 0.00 0.18 0.02 38 1020.0
20260501225619 52 295 1.0 3.0 0.00 0.18 0.02 35 1019.3
20260501225118 52 257 1.0 5.0 0.00 0.18 0.02 36 1019.3
20260501224619 52 238 2.0 6.0 0.00 0.18 0.02 35 1019.2
20260501224527 52 258 1.0 6.0 0.00 0.18 0.02 36 1019.9
20260501223618 51 165 1.0 4.0 0.00 0.18 0.02 38 1019.2
20260501223119 50 143 1.0 3.0 0.00 0.18 0.02 39 1019.3
20260501223027 49 145 1.0 3.0 0.00 0.18 0.02 40 1019.8
20260501222115 50 219 2.0 4.0 0.00 0.18 0.02 39 1019.3
20260501221614 50 113 2.0 4.0 0.00 0.18 0.02 39 1019.3
20260501221521 49 77 2.0 4.0 0.00 0.18 0.02 38 1019.9
20260501221112 50 46 2.0 4.0 0.00 0.18 0.02 42 1019.3
20260501220614 50 63 3.0 6.0 0.00 0.18 0.02 41 1019.3
20260501220112 50 50 4.0 6.0 0.00 0.18 0.02 39 1019.3
20260501220037 49 66 4.0 7.0 0.00 0.18 0.02 40 1020.0
20260501215612 50 77 4.0 7.0 0.00 0.19 0.02 40 1019.3
20260501215113 51 50 3.0 7.0 0.00 0.19 0.02 39 1019.5
20260501214613 52 110 2.0 7.0 0.00 0.19 0.02 39 1019.5
20260501214511 51 134 2.0 8.0 0.00 0.19 0.02 37 1020.1
20260501214113 52 5 2.0 6.0 0.00 0.19 0.02 37 1019.5
20260501213024 53 259 0.0 8.0 0.00 0.19 0.02 36 1020.1
20260501212106 54 333 2.0 7.0 0.00 0.19 0.02 38 1019.7
20260501211502 54 347 1.0 6.0 0.00 0.19 0.02 34 1020.2
20260501211106 54 88 2.0 5.0 0.00 0.19 0.02 37 1019.8
20260501210607 53 259 2.0 5.0 0.00 0.19 0.02 39 1019.8
20260501210106 53 345 2.0 5.0 0.00 0.19 0.02 39 1019.9
20260501210004 52 302 0.0 6.0 0.00 0.19 0.02 37 1020.4
20260501205603 53 32 2.0 5.0 0.00 0.19 0.02 38 1019.9
20260501204602 52 14 2.0 5.0 0.00 0.19 0.02 38 1020.1
20260501204504 51 321 1.0 7.0 0.00 0.19 0.02 40 1020.6
20260501204100 51 302 3.0 6.0 0.00 0.19 0.02 41 1020.2
20260501203601 51 132 3.0 6.0 0.00 0.19 0.02 41 1020.2
20260501203008 50 102 3.0 8.0 0.00 0.19 0.02 47 1020.7
20260501202059 49 115 1.0 7.0 0.00 0.19 0.02 44 1020.3
20260501201559 49 13 1.0 5.0 0.00 0.19 0.02 44 1020.4
20260501201516 48 42 0.0 5.0 0.00 0.19 0.02 42 1020.8
20260501201058 49 319 2.0 5.0 0.00 0.19 0.02 43 1020.4
20260501200552 49 76 3.0 6.0 0.00 0.19 0.02 43 1020.4
20260501200047 49 113 3.0 6.0 0.00 0.19 0.02 44 1020.6
20260501200003 49 107 3.0 7.0 0.00 0.19 0.02 43 1020.9
20260501195541 49 64 2.0 5.0 0.00 0.19 0.02 42 1020.6
20260501195035 49 181 1.0 4.0 0.00 0.19 0.02 43 1020.6
20260501194529 48 191 1.0 4.0 0.00 0.19 0.02 44 1020.6
20260501194505 48 191 1.0 4.0 0.00 0.19 0.02 45 1021.1
20260501194023 48 231 2.0 3.0 0.00 0.19 0.02 44 1020.6
20260501193021 47 76 2.0 9.0 0.00 0.19 0.02 43 1021.1
20260501193012 47 71 3.0 8.0 0.00 0.19 0.02 44 1020.4
20260501192505 48 47 3.0 8.0 0.00 0.19 0.02 46 1020.6
20260501191959 47 79 2.0 6.0 0.00 0.19 0.02 47 1020.6
20260501191516 47 59 2.0 9.0 0.00 0.19 0.02 43 1021.1
20260501191453 48 95 4.0 8.0 0.00 0.19 0.02 44 1020.7
20260501190947 49 85 4.0 8.0 0.00 0.19 0.02 45 1020.6
20260501190441 49 112 3.0 6.0 0.00 0.19 0.02 44 1020.6
20260501190043 49 178 1.0 7.0 0.00 0.19 0.02 44 1021.2
20260501185935 49 274 2.0 6.0 0.00 0.19 0.02 45 1020.7
20260501185429 49 97 0.0 2.0 0.00 0.19 0.02 47 1020.7
20260501184924 48 152 0.0 2.0 0.00 0.19 0.02 48 1020.7
20260501184533 46 148 0.0 3.0 0.00 0.19 0.02 47 1021.3
20260501184417 47 205 1.0 4.0 0.00 0.19 0.02 47 1020.8
20260501183911 46 110 2.0 7.0 0.00 0.19 0.02 45 1020.8
20260501183405 46 75 3.0 7.0 0.00 0.19 0.02 47 1020.8
20260501183026 46 80 3.0 8.0 0.00 0.19 0.02 47 1021.4
20260501182353 46 104 2.0 6.0 0.00 0.19 0.02 46 1020.8
20260501181848 46 134 2.0 4.0 0.00 0.19 0.02 47 1020.8
20260501181511 46 92 2.0 7.0 0.00 0.19 0.02 46 1021.4
20260501180835 46 63 2.0 6.0 0.00 0.19 0.02 44 1020.9
20260501180329 47 63 1.0 4.0 0.00 0.19 0.02 46 1020.9
20260501180014 46 296 0.0 4.0 0.00 0.19 0.02 43 1021.5
20260501175824 47 300 1.0 4.0 0.00 0.19 0.02 44 1020.9